Weather in Mazeikiai

Lithuania     56˚18′12″N   22˚20′16″E
temp.,
°C
wind,
m/s
gust,
m/s
humid.,
%
clouds,
%
prec.,
mm/h
press.,
hPa
HPBL,
m
2 december, wed
wed223:00−2˚sse368882 0.0 1029235
02:00−2˚sse368874 0.0 1030244
05:00−2˚sse368813 0.0 1029247
08:00−2˚sse368524 0.0 1030267
11:00−2˚sse467819 0.0 1030340
14:00−1˚sse46719 0.0 1028447
17:00−3˚se48810 0.0 1027423
20:00−3˚se59850 0.0 1026401
3 december, thu
thu323:00−4˚se488660 0.0 1024403
02:00−4˚se498969 0.0 1022394
05:00−4˚se489184 0.0 1020384
08:00−3˚se588890 0.0 1018474
11:00−3˚sse5985100 0.0 1018567
14:00−2˚se6978100 0.1 1017627
17:00−2˚se61281100 0.0 1015539
20:00−1˚se71480100 0.1 1013620
4 december, fri
fri423:00−1˚se71584100 0.1 1012670
02:00+1˚sse71584100 0.6 1011735
05:00+1˚sse71584100 0.1 1009665
08:00+1˚sse71585100 0.4 1010640
11:00+2˚se81786100 0.1 1009590
14:00+2˚se81685100 0.1 1009668
17:00+2˚se81787100 0.0 1009606
20:00+2˚se81787100 0.0 1009640
5 december, sat
sat523:00+3˚se7168894 0.0 1010658
02:00+3˚sse7188990 0.0 1010604
05:00+5˚sse81789100 0.0 1011632
08:00+5˚sse81689100 0.0 1012616
11:00+6˚sse81686100 0.0 1013677
14:00+7˚se8168599 0.0 1014671
17:00+6˚sse8168570 0.0 1014655
20:00+6˚se8168577 0.0 1015666
6 december, sun
sun623:00+6˚se8168393 0.0 1016719
02:00+6˚se8168480 0.0 1016662
05:00+6˚se8168370 0.0 1017706
08:00+6˚se8158280 0.0 1017747
11:00+5˚se81479100 0.0 1018754
14:00+5˚se81377100 0.0 1019776
17:00+3˚se81479100 0.0 1019725
20:00+1˚se8147993 0.0 1019715